Location: Newark
(47.3150°N, 5.1150°E)
Time: 09:49:27
(UTC+00:00)

RS-15 - Visible Passes

Search period start: 07 December 2019 00:00
Search period end: 17 December 2019 00:00
Orbit: 1900 x 2145 km, 64.8° (Epoch: 06 December)

Date Brightness Start Highest point End Pass type
(mag) Time Alt. Az. Time Alt. Az. Time Alt. Az.
07 Dec 8.0 16:26:29 10° NW 16:37:17 58° NE 16:48:21 10° ESE visible
07 Dec 8.6 18:39:10 10° NW 18:49:40 54° WSW 19:00:31 10° S visible
07 Dec 10.2 20:57:02 10° W 20:59:14 11° W 21:01:26 10° WSW visible
08 Dec 8.3 18:03:00 10° NW 18:13:51 67° WSW 18:25:02 10° SSE visible
08 Dec 10.0 20:17:56 10° WNW 20:23:58 17° W 20:30:07 10° SW visible
09 Dec 10.5 06:25:46 10° ESE 06:30:26 14° E 06:35:03 10° ENE visible
09 Dec 8.1 17:26:53 10° NW 17:37:54 82° WSW 17:49:16 10° SSE visible
09 Dec 9.7 19:40:42 10° NW 19:48:34 23° W 19:56:38 10° SSW visible
10 Dec 8.0 16:50:48 10° NW 17:01:52 84° NE 17:13:15 10° SE visible
10 Dec 9.4 19:04:00 10° NW 19:13:03 31° WSW 19:22:24 10° SSW visible
11 Dec 8.0 16:14:42 10° NW 16:25:42 70° NE 16:37:00 10° SE visible
11 Dec 9.1 18:27:35 10° NW 18:37:27 40° WSW 18:47:39 10° S visible
12 Dec 8.7 17:51:18 10° NW 18:01:44 52° WSW 18:12:32 10° S visible
13 Dec 10.3 06:10:23 10° SE 06:17:47 21° E 06:25:03 10° ENE visible
13 Dec 8.4 17:15:07 10° NW 17:25:55 65° WSW 17:37:05 10° SSE visible
13 Dec 10.2 19:30:18 10° WNW 19:35:58 16° W 19:41:45 10° SW visible
14 Dec 10.5 05:37:17 10° ESE 05:42:26 14° E 05:47:31 10° ENE visible
14 Dec 8.2 16:39:00 10° NW 16:50:00 80° WSW 17:01:22 10° SSE visible
14 Dec 10.0 18:52:57 10° NW 19:00:36 22° W 19:08:26 10° SW visible
15 Dec 9.7 18:16:11 10° NW 18:25:06 30° WSW 18:34:18 10° SSW visible
16 Dec 9.5 06:30:59 10° S 06:40:52 39° ESE 06:50:33 10° NE visible
16 Dec 9.3 17:39:44 10° NW 17:49:31 39° WSW 17:59:37 10° S visible
